• Em Portugal
  • Lista de países
  • Para 7 dias
  • Temperatura da água
  • Mapas de satélite
  • Mapa do tempo
  • Widgets de tempo
  • user-avatar
    Iniciar Sessão

    Previsão horária em Balchik

    Hoje, 14 Novembro, Quarta-feira

    Tempo Temperatura Precipitação Vento Pressão Humidade
    00:00 +5°C° 0 mm 2 m/s 749 mmHg 85%
    01:00 +5°C° 0 mm 2 m/s 749 mmHg 85%
    02:00 +4°C° 0 mm 2 m/s 748 mmHg 86%
    03:00 +4°C° 0 mm 2 m/s 748 mmHg 87%
    04:00 +5°C° 0 mm 1 m/s 748 mmHg 87%
    05:00 +5°C° 0 mm 1 m/s 747 mmHg 88%
    06:00 +5°C° 0 mm 1 m/s 747 mmHg 86%
    07:00 +5°C° 0 mm 1 m/s 747 mmHg 85%
    08:00 +5°C° 0 mm 1 m/s 747 mmHg 83%
    09:00 +6°C° 0 mm 1 m/s 747 mmHg 77%
    10:00 +8°C° 0 mm 1 m/s 747 mmHg 72%
    11:00 +9°C° 0 mm 1 m/s 747 mmHg 66%
    12:00 +9°C° 0 mm 1 m/s 746 mmHg 63%
    13:00 +10°C° 0 mm 1 m/s 746 mmHg 60%
    14:00 +11°C° 0 mm 1 m/s 745 mmHg 57%
    15:00 +10°C° 0 mm 1 m/s 745 mmHg 58%
    16:00 +10°C° 0 mm 1 m/s 745 mmHg 60%
    17:00 +10°C° 0 mm 1 m/s 745 mmHg 61%
    18:00 +10°C° 0 mm 1 m/s 745 mmHg 63%
    19:00 +9°C° 0 mm 1 m/s 745 mmHg 65%
    20:00 +8°C° 0 mm 2 m/s 745 mmHg 67%
    21:00 +9°C° 0 mm 1 m/s 745 mmHg 68%
    22:00 +9°C° 0 mm 1 m/s 745 mmHg 70%
    23:00 +8°C° 0 mm 1 m/s 745 mmHg 71%

    Amanhã, 15 Novembro, Quinta-feira

    Tempo Temperatura Precipitação Vento Pressão Humidade
    00:00 +8°C° 0.1 mm 1 m/s 744 mmHg 73%
    01:00 +7°C° 0.1 mm 2 m/s 744 mmHg 75%
    02:00 +7°C° 0.1 mm 2 m/s 744 mmHg 77%
    03:00 +5°C° 0.4 mm 3 m/s 744 mmHg 79%
    04:00 +5°C° 0.4 mm 3 m/s 744 mmHg 82%
    05:00 +5°C° 0.4 mm 4 m/s 743 mmHg 84%
    06:00 +5°C° 1 mm 4 m/s 744 mmHg 85%
    07:00 +4°C° 1 mm 4 m/s 744 mmHg 85%
    08:00 +3°C° 1 mm 5 m/s 744 mmHg 85%
    09:00 +5°C° 0.3 mm 5 m/s 744 mmHg 81%
    10:00 +5°C° 0.3 mm 5 m/s 744 mmHg 78%
    11:00 +6°C° 0.3 mm 5 m/s 744 mmHg 74%
    12:00 +6°C° 0 mm 5 m/s 744 mmHg 71%
    13:00 +7°C° 0 mm 6 m/s 744 mmHg 69%
    14:00 +8°C° 0 mm 6 m/s 744 mmHg 66%
    15:00 +7°C° 0 mm 6 m/s 744 mmHg 68%
    16:00 +7°C° 0 mm 6 m/s 744 mmHg 70%
    17:00 +7°C° 0 mm 5 m/s 744 mmHg 73%
    18:00 +6°C° 0 mm 5 m/s 744 mmHg 75%
    19:00 +6°C° 0 mm 5 m/s 745 mmHg 77%
    20:00 +6°C° 0 mm 5 m/s 745 mmHg 79%
    21:00 +5°C° 0 mm 5 m/s 745 mmHg 80%
    22:00 +5°C° 0 mm 5 m/s 745 mmHg 81%
    23:00 +5°C° 0 mm 5 m/s 745 mmHg 82%

    Depois de amanhã, 16 Novembro, Sexta-feira

    Tempo Temperatura Precipitação Vento Pressão Humidade
    00:00 +3°C° 0 mm 6 m/s 746 mmHg 83%
    01:00 +3°C° 0 mm 6 m/s 746 mmHg 84%
    02:00 +3°C° 0 mm 6 m/s 746 mmHg 84%
    03:00 +2°C° 0 mm 6 m/s 746 mmHg 84%
    04:00 +2°C° 0 mm 7 m/s 746 mmHg 83%
    05:00 +2°C° 0 mm 7 m/s 746 mmHg 83%
    06:00 +2°C° 0 mm 7 m/s 746 mmHg 80%
    07:00 0°C° 0 mm 7 m/s 746 mmHg 78%
    08:00 0°C° 0 mm 8 m/s 747 mmHg 76%
    09:00 0°C° 0.1 mm 8 m/s 747 mmHg 74%
    10:00 +1°C° 0.1 mm 8 m/s 747 mmHg 71%
    11:00 +1°C° 0.1 mm 8 m/s 747 mmHg 69%
    12:00 +2°C° 0.1 mm 8 m/s 747 mmHg 66%
    13:00 +2°C° 0.1 mm 8 m/s 747 mmHg 62%
    14:00 +2°C° 0.1 mm 8 m/s 747 mmHg 58%
    15:00 +2°C° 0 mm 8 m/s 747 mmHg 59%
    16:00 +2°C° 0 mm 8 m/s 747 mmHg 59%
    17:00 +3°C° 0 mm 7 m/s 747 mmHg 59%
    18:00 +2°C° 0.1 mm 7 m/s 748 mmHg 60%
    19:00 +1°C° 0.1 mm 8 m/s 748 mmHg 61%
    20:00 +1°C° 0.1 mm 8 m/s 748 mmHg 62%
    21:00 +1°C° 0 mm 8 m/s 748 mmHg 62%
    22:00 0°C° 0 mm 7 m/s 748 mmHg 62%
    23:00 0°C° 0 mm 7 m/s 748 mmHg 62%

    17 Novembro, Sábado

    Tempo Temperatura Precipitação Vento Pressão Humidade
    00:00 0°C° 0 mm 7 m/s 748 mmHg 63%
    01:00 -1°C° 0 mm 7 m/s 748 mmHg 64%
    02:00 -1°C° 0 mm 7 m/s 749 mmHg 65%
    03:00 -1°C° 0 mm 7 m/s 749 mmHg 66%
    04:00 -2°C° 0 mm 7 m/s 749 mmHg 66%
    05:00 -2°C° 0 mm 6 m/s 749 mmHg 67%
    06:00 -2°C° 0 mm 6 m/s 749 mmHg 67%
    07:00 -3°C° 0 mm 6 m/s 749 mmHg 66%
    08:00 -3°C° 0 mm 6 m/s 749 mmHg 66%
    09:00 -2°C° 0 mm 6 m/s 749 mmHg 62%
    10:00 -1°C° 0 mm 6 m/s 750 mmHg 59%
    11:00 +1°C° 0 mm 6 m/s 750 mmHg 56%
    12:00 +1°C° 0 mm 6 m/s 750 mmHg 55%
    13:00 +2°C° 0 mm 6 m/s 750 mmHg 55%
    14:00 +2°C° 0 mm 5 m/s 750 mmHg 54%
    15:00 +1°C° 0 mm 5 m/s 749 mmHg 56%
    16:00 +1°C° 0 mm 5 m/s 749 mmHg 59%
    17:00 0°C° 0 mm 5 m/s 749 mmHg 61%
    18:00 0°C° 0 mm 5 m/s 749 mmHg 62%
    19:00 0°C° 0 mm 5 m/s 749 mmHg 63%
    20:00 -1°C° 0 mm 4 m/s 749 mmHg 64%
    21:00 -1°C° 0 mm 4 m/s 749 mmHg 65%
    22:00 -1°C° 0 mm 4 m/s 749 mmHg 66%
    23:00 -2°C° 0 mm 4 m/s 749 mmHg 67%

    18 Novembro, Domingo

    Tempo Temperatura Precipitação Vento Pressão Humidade
    00:00 -2°C° 0 mm 4 m/s 749 mmHg 67%
    01:00 -1°C° 0 mm 3 m/s 749 mmHg 67%
    02:00 -1°C° 0 mm 3 m/s 749 mmHg 67%
    03:00 -1°C° 0 mm 3 m/s 748 mmHg 67%
    04:00 -1°C° 0 mm 3 m/s 748 mmHg 67%
    05:00 -2°C° 0 mm 3 m/s 748 mmHg 67%
    06:00 -2°C° 0 mm 3 m/s 748 mmHg 66%
    07:00 -2°C° 0 mm 3 m/s 747 mmHg 66%
    08:00 -2°C° 0 mm 3 m/s 747 mmHg 65%
    09:00 0°C° 0 mm 3 m/s 747 mmHg 60%
    10:00 +1°C° 0 mm 3 m/s 747 mmHg 55%
    11:00 +3°C° 0 mm 3 m/s 747 mmHg 50%
    12:00 +3°C° 0 mm 3 m/s 746 mmHg 49%
    13:00 +4°C° 0 mm 3 m/s 745 mmHg 48%
    14:00 +6°C° 0 mm 2 m/s 744 mmHg 47%
    15:00 +5°C° 0 mm 2 m/s 744 mmHg 50%
    16:00 +4°C° 0 mm 2 m/s 743 mmHg 52%
    17:00 +4°C° 0 mm 2 m/s 743 mmHg 54%
    18:00 +4°C° 0 mm 2 m/s 742 mmHg 54%
    19:00 +3°C° 0 mm 2 m/s 742 mmHg 55%
    20:00 +4°C° 0 mm 1 m/s 741 mmHg 55%
    21:00 +4°C° 0 mm 1 m/s 741 mmHg 55%
    22:00 +4°C° 0 mm 1 m/s 740 mmHg 56%
    23:00 +4°C° 0 mm 1 m/s 740 mmHg 56%

    19 Novembro, Segunda-feira

    Tempo Temperatura Precipitação Vento Pressão Humidade
    00:00 +4°C° 0.1 mm 1 m/s 739 mmHg 57%
    01:00 +3°C° 0.1 mm 2 m/s 739 mmHg 58%
    02:00 +3°C° 0.1 mm 2 m/s 738 mmHg 59%
    03:00 +2°C° 0.2 mm 3 m/s 738 mmHg 61%
    04:00 +2°C° 0.2 mm 3 m/s 737 mmHg 63%
    05:00 +2°C° 0.2 mm 3 m/s 737 mmHg 64%
    06:00 +1°C° 0.4 mm 4 m/s 737 mmHg 68%
    07:00 +1°C° 0.4 mm 4 m/s 737 mmHg 71%
    08:00 +1°C° 0.4 mm 5 m/s 736 mmHg 74%
    09:00 +2°C° 0.7 mm 5 m/s 736 mmHg 75%
    10:00 +2°C° 0.7 mm 5 m/s 736 mmHg 76%
    11:00 +3°C° 0.7 mm 6 m/s 736 mmHg 78%
    12:00 +3°C° 0.4 mm 6 m/s 736 mmHg 78%
    13:00 +3°C° 0.4 mm 6 m/s 736 mmHg 77%
    14:00 +4°C° 0.4 mm 7 m/s 735 mmHg 77%
    15:00 +4°C° 0.3 mm 7 m/s 735 mmHg 78%
    16:00 +4°C° 0.3 mm 7 m/s 735 mmHg 79%
    17:00 +4°C° 0.3 mm 7 m/s 735 mmHg 79%
    18:00 +3°C° 0.3 mm 7 m/s 735 mmHg 79%
    19:00 +3°C° 0.3 mm 6 m/s 735 mmHg 78%
    20:00 +3°C° 0.3 mm 6 m/s 735 mmHg 78%
    21:00 +3°C° 0.3 mm 6 m/s 735 mmHg 80%
    22:00 +3°C° 0.3 mm 6 m/s 736 mmHg 81%
    23:00 +2°C° 0.3 mm 6 m/s 736 mmHg 83%
    Mostrar mais